www.pogodaiklimat.ru
ПОГОДА в Красноярск аэропорту

Архив погоды в Красноярск аэропорту (Красноярский край, Россия)

Время
(UTC), дата
04 25.06
05 25.06
06 25.06
07 25.06
08 25.06
09 25.06
10 25.06
11 25.06
12 25.06
13 25.06
14 25.06
15 25.06
16 25.06
17 25.06
18 25.06
19 25.06
20 25.06
21 25.06
22 25.06
23 25.06
00 26.06
01 26.06
02 26.06
03 26.06
04 26.06
05 26.06
06 26.06
07 26.06
08 26.06
09 26.06
10 26.06
11 26.06
12 26.06
13 26.06
14 26.06
15 26.06
16 26.06
17 26.06
18 26.06
19 26.06
20 26.06
21 26.06
22 26.06
23 26.06
00 27.06
01 27.06
02 27.06
03 27.06
04 27.06
05 27.06
06 27.06
07 27.06
08 27.06
09 27.06
10 27.06
11 27.06
12 27.06
13 27.06
14 27.06
15 27.06
16 27.06
17 27.06
18 27.06
19 27.06
20 27.06
21 27.06
22 27.06
23 27.06
00 28.06
01 28.06
02 28.06
03 28.06
04 28.06
05 28.06
06 28.06
07 28.06
08 28.06
09 28.06
10 28.06
11 28.06
12 28.06
13 28.06
14 28.06
15 28.06
16 28.06
17 28.06
18 28.06
19 28.06
20 28.06
21 28.06
22 28.06
23 28.06
00 29.06
01 29.06
02 29.06
03 29.06
04 29.06
05 29.06
06 29.06
07 29.06
08 29.06
09 29.06
10 29.06
11 29.06
12 29.06
13 29.06
14 29.06
15 29.06
16 29.06
17 29.06
18 29.06
19 29.06
20 29.06
21 29.06
22 29.06
23 29.06
00 30.06
01 30.06
02 30.06
03 30.06
04 30.06
05 30.06
06 30.06
07 30.06
08 30.06
09 30.06
10 30.06
11 30.06
12 30.06
13 30.06
14 30.06
15 30.06
16 30.06
17 30.06
18 30.06
19 30.06
20 30.06
21 30.06
22 30.06
00 1.07
01 1.07
02 1.07
03 1.07
04 1.07
05 1.07
06 1.07
07 1.07
08 1.07
09 1.07
10 1.07
11 1.07
12 1.07
13 1.07
14 1.07
15 1.07
16 1.07
17 1.07
18 1.07
19 1.07
20 1.07
21 1.07
22 1.07
23 1.07
23 31.06
00 2.07
01 2.07
02 2.07
03 2.07
04 2.07
05 2.07
23 30.07
Ветер
(напр.,м/с)
Видим. Явления Облачность Т
(С)
Тd
(С)
f
(%)
Тe
(С)
Тes
(С)
Комфортность P
(гПа)
Po
(гПа)
Тmin
(С)
Tmax
(С)
R
(мм)
R24
(мм)
S
(см)
З 5 10 км 5/5 990 м +22.0 +15.0 64 +25 +25 комфорт 1004.0 971.3
З 11-16 10 км 5/5 1110 м +23.0 +16.0 65 +27 +27 душно 1004.0 971.4
З 11-16 10 км слаб. ливневой дождь 5/5 1260 м
[Cb]
+23.0 +15.0 61 +27 +27 душно 1004.0 971.4
З 6 10 км 5/5 1080 м +24.0 +16.0 61 +27 +27 жарко 1004.0 971.5
З 7 10 км 5/5 1200 м +24.0 +15.0 57 +27 +27 жарко 1003.0 970.5
З 7-12 10 км 5/5 1230 м +25.0 +16.0 57 +28 +28 жарко 1003.0 970.6
З 6 10 км 5/5 1200 м +23.0 +15.0 61 +27 +27 душно 1004.0 971.4
З 4 10 км 5/5 1410 м +22.0 +16.0 69 +26 +26 душно 1004.0 971.3
З 6 10 км 5/5 1260 м +24.0 +16.0 61 +27 +27 жарко 1003.0 970.5
ЮЗ 3 10 км гроза без осадков 5/5 1230 м
[Cb]
+23.0 +16.0 65 +27 +27 душно 1003.0 970.4
штиль 0 10 км 5/5 1230 м +22.0 +17.0 73 +26 +26 душно 1004.0 971.3
ЮЗ 3 10 км нет нижн обл +21.0 +16.0 73 +25 +25 комфорт 1003.0 970.2
ЮЗ 6 10 км нет нижн обл +21.0 +16.0 73 +24 +24 комфорт 1003.0 970.2
ЮЗ 4 10 км нет нижн обл +19.0 +17.0 88 +20 +20 1003.0 970.0
ЮЗ 5 10 км нет нижн обл +20.0 +16.0 78 +22 +22 комфорт 1002.0 969.1
ЮЗ 5 10 км нет нижн обл +20.0 +16.0 78 +22 +22 комфорт 1002.0 969.1
ЮЗ 5 10 км нет нижн обл +21.0 +16.0 73 +24 +24 комфорт 1002.0 969.2
ЮЗ 5 10 км нет нижн обл +20.0 +16.0 78 +22 +22 комфорт 1002.0 969.1
ЮЗ 3 10 км 5/5 990 м +21.0 +16.0 73 +25 +25 комфорт 1002.0 969.2
ЮЗ 4 10 км нет нижн обл +21.0 +16.0 73 +25 +25 комфорт 1002.0 969.2
ЮЗ 4 10 км нет нижн обл +22.0 +17.0 73 +26 +26 душно 1002.0 969.4
З 5 10 км нет нижн обл +23.0 +17.0 69 +28 +28 душно 1002.0 969.5
З 5 10 км нет нижн обл +24.0 +18.0 69 +28 +28 душно 1003.0 970.6
З 5 10 км 5/5 990 м +25.0 +18.0 65 +29 +29 душно 1002.0 969.7
ЮЗ 5 10 км нет нижн обл +26.0 +18.0 61 +30 +30 душно 1003.0 970.8
З 5 10 км 5/5 1200 м +27.0 +18.0 58 +32 +32 очень
душно
1003.0 970.9
З 4-8 10 км 2/2 1350 м +27.0 +18.0 58 +32 +32 очень
душно
1002.0 969.9
ЮЗ 3 10 км нет нижн обл +29.0 +16.0 45 +32 +32 душно 1002.0 970.1
З 4 10 км гроза без осадков 5/5 1650 м
[Cb]
+30.0 +17.0 46 +34 +34 очень
душно
1002.0 970.2
С 4-10 4000 м гроза, ливневой дождь 5/5 720 м
[Cb]
+20.0 +20.0 100 +24 +24 комфорт 1003.0 970.2
СЗ 3 10 км 5/5 900 м +23.0 +20.0 83 +30 +30 очень
душно
1002.0 969.5
штиль 0 10 км 5/5 900 м +24.0 +20.0 78 +29 +29 душно 1001.0 968.7
В 1 10 км нет нижн обл +24.0 +20.0 78 +29 +29 душно 1001.0 968.7
ЮВ 3 10 км нет нижн обл +23.0 +20.0 83 +30 +30 очень
душно
999.0 966.6
штиль 0 10 км нет нижн обл +22.0 +21.0 94 +28 +28 душно 999.0 966.5
штиль 0 10 км туман поземный нет нижн обл +20.0 +20.0 100 +23 +23 комфорт 999.0 966.3
штиль 0 10 км нет нижн обл +19.0 +19.0 100 +21 +21 комфорт 998.0 965.2
штиль 0 9000 м местами туман поземный нет нижн обл +19.0 +19.0 100 +21 +21 комфорт 997.0 964.2
Ю 2 10 км нет нижн обл +17.0 +17.0 100 +17 +17 997.0 964.0
ЮЗ 3 10 км 8/8 480 м +25.0 +15.0 54 +28 +28 жарко 997.0 964.8
З 8-14 10 км гроза, ливневой дождь 5/5 1110 м
[Cb]
+20.0 +16.0 78 +22 +22 комфорт 1000.0 967.2
штиль 0 10 км туман поземный 5/5 1320 м +18.0 +17.0 94 +18 +18 997.0 964.1
ЮЗ 2 9000 м 5/5 1200 м +16.0 +16.0 100 +16 +16 997.0 963.9
ЮЗ 3 10 км 5/5 1230 м +22.0 +15.0 64 +25 +25 комфорт 998.0 965.5
ЮЗ 3 10 км нет нижн обл +23.0 +16.0 65 +27 +27 душно 998.0 965.6
З 5 10 км нет нижн обл +24.0 +17.0 65 +28 +28 душно 999.0 966.7
З 6 10 км нет нижн обл +25.0 +18.0 65 +29 +29 душно 999.0 966.8
З 6 10 км нет нижн обл +26.0 +18.0 61 +30 +30 душно 1000.0 967.9
З 7 10 км нет нижн обл +27.0 +18.0 58 +32 +32 очень
душно
1000.0 968.0
З 8-13 10 км 2/2 1380 м +27.0 +17.0 54 +31 +31 душно 1000.0 968.0
З 6 10 км нет нижн обл +28.0 +17.0 51 +32 +32 душно 1000.0 968.1
З 7 10 км гроза, ливневой дождь 5/5 1080 м
[Cb]
+25.0 +19.0 69 +30 +30 душно 999.0 966.8
З 4-9 9000 м гроза, ливневой дождь 5/5 900 м
[Cb]
+23.0 +19.0 78 +29 +29 очень
душно
1000.0 967.6
СЗ 3 10 км гроза без осадков 5/5 960 м
[Cb]
+22.0 +21.0 94 +28 +28 душно 999.0 966.5
З 5 7000 м гроза, ливневой дождь 5/5 1290 м
[Cb]
+18.0 +18.0 100 +18 +18 1001.0 968.0
ЮВ 4 10 км 5/5 1470 м +19.0 +19.0 100 +21 +21 комфорт 1000.0 967.1
ЮВ 4 10 км 2/2 1410 м +20.0 +19.0 94 +23 +23 комфорт 999.0 966.3
штиль 0 10 км нет нижн обл +20.0 +19.0 94 +23 +23 комфорт 1000.0 967.2
ЮВ 2 10 км нет нижн обл +19.0 +19.0 100 +21 +21 комфорт 999.0 966.2
штиль 0 8000 м 2/2 60 м +18.0 +18.0 100 +18 +18 998.0 965.1
В 2 8000 м 2/2 30 м +17.0 +17.0 100 +17 +17 997.0 964.0
В 3 10 км нет нижн обл +18.0 +18.0 100 +18 +18 996.0 963.1
В 3 9000 м дымка нет нижн обл +18.0 +18.0 100 +18 +18 995.0 962.2
Ю 4 9000 м 2/2 1200 м +18.0 +18.0 100 +18 +18 994.0 961.2
Ю 3 10 км гроза без осадков 5/5 1200 м
[Cb]
+19.0 +18.0 94 +21 +21 комфорт 994.0 961.3
С 2 10 км 5/5 1200 м +18.0 +18.0 100 +19 +19 994.0 961.2
ЮЗ 6 10 км 5/5 1200 м +20.0 +16.0 78 +22 +22 комфорт 995.0 962.4
ЮЗ 3 9000 м слаб. ливневой дождь 5/5 1200 м
[Cb]
+19.0 +17.0 88 +21 +21 комфорт 996.0 963.2
ЮЗ 3 10 км 5/5 1260 м +19.0 +17.0 88 +21 +21 комфорт 996.0 963.2
ЮЗ 4-9 10 км нет нижн обл +20.0 +17.0 83 +23 +23 комфорт 997.0 964.3
З 12-20 10 км слаб. ливневой дождь 5/5 1830 м
[Cb]
+17.0 +15.0 88 +15 +15 999.0 965.9
З 11-19 10 км 5/5 1200 м +18.0 +14.0 77 +17 +17 1001.0 967.9
З 11-19 10 км 5/5 930 м +20.0 +13.0 64 +21 +21 комфорт 1002.0 969.1
З 11-19 10 км 5/5 1350 м +19.0 +13.0 68 +19 +19 1003.0 969.9
З 11-19 10 км 5/5 1170 м +20.0 +12.0 60 +21 +21 комфорт 1004.0 971.0
З 10-15 10 км нет нижн обл +20.0 +10.0 53 +21 +21 комфорт 1004.0 971.0
З 9 10 км нет нижн обл +21.0 +10.0 49 +22 +22 комфорт 1005.0 972.1
З 9 10 км нет нижн обл +21.0 +10.0 49 +22 +22 комфорт 1006.0 973.0
З 10-15 10 км нет нижн обл +20.0 +9.0 49 +20 +20 1007.0 973.9
З 6 10 км нет нижн обл +20.0 +10.0 53 +21 +21 комфорт 1007.0 973.9
З 5 10 км нет нижн обл +20.0 +11.0 56 +21 +21 комфорт 1007.0 973.9
З 5 10 км нет нижн обл +19.0 +10.0 56 +19 +19 1008.0 974.7
ЮЗ 3 10 км нет нижн обл +17.0 +11.0 68 +17 +17 1008.0 974.5
ЮЗ 3 10 км нет нижн обл +15.0 +11.0 77 +14 +14 1008.0 974.3
штиль 0 10 км нет нижн обл +14.0 +11.0 82 +14 +14 1008.0 974.2
Ю 2 10 км нет нижн обл +11.0 +11.0 100 +10 +10 1009.0 974.8
штиль 0 10 км нет нижн обл +10.0 +10.0 100 +9 +9 1009.0 974.7
штиль 0 10 км нет нижн обл +10.0 +10.0 100 +9 +9 1009.0 974.7
штиль 0 10 км нет нижн обл +9.0 +9.0 100 +8 +8 1008.0 973.6
З 2 10 км нет нижн обл +9.0 +9.0 100 +7 +7 1009.0 974.5
штиль 0 10 км нет нижн обл +10.0 +10.0 100 +9 +9 1009.0 974.7
штиль 0 10 км нет нижн обл +12.0 +11.0 94 +11 +11 1009.0 974.9
В 2 10 км нет нижн обл +15.0 +12.0 82 +15 +15 1009.0 975.3
В 1 10 км нет нижн обл +17.0 +12.0 72 +18 +18 1009.0 975.5
В 2 10 км нет нижн обл +18.0 +13.0 73 +19 +19 1008.0 974.7
ЮВ 4 10 км нет нижн обл +20.0 +11.0 56 +22 +22 комфорт 1008.0 974.9
В 4 10 км нет нижн обл +21.0 +11.0 53 +23 +23 комфорт 1007.0 974.0
В 4 10 км нет нижн обл +23.0 +12.0 50 +26 +26 жарко 1006.0 973.3
ЮВ 4 10 км нет нижн обл +24.0 +12.0 47 +26 +26 жарко 1006.0 973.4
штиль 0 10 км нет нижн обл +25.0 +11.0 41 +26 +26 жарко 1005.0 972.5
В 3-9 10 км нет нижн обл +24.0 +12.0 47 +26 +26 жарко 1004.0 971.5
ЮВ 3 10 км нет нижн обл +24.0 +12.0 47 +26 +26 жарко 1004.0 971.5
ЮВ 3 10 км нет нижн обл +24.0 +13.0 50 +26 +26 жарко 1004.0 971.5
В 3 10 км нет нижн обл +26.0 +12.0 42 +27 +27 жарко 1003.0 970.7
В 3 10 км нет нижн обл +25.0 +13.0 47 +27 +27 жарко 1003.0 970.6
ЮВ 2 10 км нет нижн обл +24.0 +14.0 54 +26 +26 жарко 1003.0 970.5
ЮЗ 1 10 км нет нижн обл +20.0 +15.0 73 +23 +23 комфорт 1002.0 969.1
штиль 0 10 км нет нижн обл +17.0 +14.0 82 +17 +17 1002.0 968.8
З 1 10 км нет нижн обл +15.0 +13.0 88 +15 +15 1002.0 968.5
штиль 0 10 км нет нижн обл +14.0 +13.0 94 +14 +14 1001.0 967.4
штиль 0 10 км нет нижн обл +13.0 +12.0 94 +12 +12 1001.0 967.3
штиль 0 10 км нет нижн обл +12.0 +12.0 100 +11 +11 1000.0 966.2
штиль 0 10 км нет нижн обл +12.0 +11.0 94 +11 +11 1000.0 966.2
ЮВ 1 10 км нет нижн обл +12.0 +12.0 100 +12 +12 999.0 965.3
штиль 0 10 км нет нижн обл +13.0 +13.0 100 +12 +12 999.0 965.4
ЮВ 1 10 км нет нижн обл +15.0 +14.0 94 +15 +15 998.0 964.7
В 2 10 км нет нижн обл +17.0 +15.0 88 +17 +17 998.0 964.9
В 2 10 км нет нижн обл +17.0 +15.0 88 +17 +17 998.0 964.9
ЮВ 3 10 км нет нижн обл +20.0 +15.0 73 +23 +23 комфорт 998.0 965.2
В 4 10 км нет нижн обл +22.0 +15.0 64 +25 +25 комфорт 997.0 964.5
ЮВ 3 10 км нет нижн обл +24.0 +16.0 61 +27 +27 жарко 997.0 964.7
ЮВ 3 10 км нет нижн обл +26.0 +16.0 54 +29 +29 душно 997.0 964.9
ЮЗ 2 10 км нет нижн обл +27.0 +15.0 48 +30 +30 душно 998.0 966.0
З 2 10 км нет нижн обл +29.0 +15.0 43 +32 +32 душно 998.0 966.2
З 8 10 км 5/5 1200 м +26.0 +14.0 48 +28 +28 жарко 999.0 966.9
З 7 10 км слаб. ливневой дождь 5/5 1080 м
[Cb]
+23.0 +14.0 57 +26 +26 жарко 1001.0 968.5
З 4 10 км 5/5 990 м +23.0 +15.0 61 +27 +27 душно 1000.0 967.5
штиль 0 10 км нет нижн обл +24.0 +14.0 54 +26 +26 жарко 1000.0 967.6
штиль 0 10 км нет нижн обл +23.0 +16.0 65 +27 +27 душно 1001.0 968.5
Ю 2 10 км нет нижн обл +22.0 +17.0 73 +26 +26 душно 1001.0 968.4
штиль 0 10 км слаб. ливневой дождь 5/5 1290 м
[Cb]
+21.0 +17.0 78 +25 +25 комфорт 1001.0 968.3
З 2 10 км 5/5 1230 м +19.0 +17.0 88 +21 +21 комфорт 1001.0 968.1
З 3 10 км 5/5 1440 м +17.0 +16.0 94 +17 +17 1001.0 967.8
З 3 10 км нет нижн обл +17.0 +15.0 88 +17 +17 1002.0 968.8
СЗ 3 10 км нет нижн обл +17.0 +12.0 72 +17 +17 1002.0 968.7
З 1 10 км нет нижн обл +17.0 +11.0 68 +18 +18 1003.0 969.7
З 3 10 км 5/5 1230 м +17.0 +11.0 68 +17 +17 1002.0 968.7
штиль 0 10 км нет нижн обл +17.0 +9.0 59 +17 +17 1002.0 968.7
З 1 10 км 5/5 1320 м +16.0 +11.0 72 +17 +17 1003.0 969.6
штиль 0 10 км слаб. ливневой дождь 5/5 1170 м
[Cb]
+14.0 +14.0 100 +13 +13 1002.0 968.4
З 3 10 км слаб. ливневой дождь 5/5 1080 м
[Cb]
+14.0 +13.0 94 +13 +13 1002.0 968.4
З 2 10 км слаб. ливневой дождь 5/5 1110 м
[Cb]
+14.0 +13.0 94 +13 +13 1003.0 969.4
З 1 10 км слаб. ливневой дождь 5/5 1110 м
[Cb]
+16.0 +14.0 88 +17 +17 1003.0 969.6
штиль 0 10 км 5/5 1290 м +17.0 +12.0 72 +17 +17 1003.0 969.7
штиль 0 10 км 5/5 990 м +18.0 +11.0 64 +18 +18 1003.0 969.8
ЮВ 2 10 км 5/5 1320 м +18.0 +12.0 68 +19 +19 1003.0 969.8
штиль 0 10 км 5/5 1260 м +19.0 +13.0 68 +20 +20 1003.0 969.9
штиль 0 10 км нет нижн обл +21.0 +14.0 64 +24 +24 комфорт 1003.0 970.2
В 2 10 км нет нижн обл +21.0 +13.0 60 +24 +24 комфорт 1003.0 970.2
ЮЗ 2 10 км нет нижн обл +22.0 +11.0 50 +24 +24 комфорт 1003.0 970.3
штиль 0 9000 м нет нижн обл +22.0 +10.0 46 +24 +24 комфорт 1003.0 970.2
З 4 10 км нет нижн обл +22.0 +10.0 46 +24 +24 комфорт 1003.0 970.2
штиль 0 10 км нет нижн обл +21.0 +12.0 56 +23 +23 комфорт 1003.0 970.2
З 1 10 км нет нижн обл +17.0 +13.0 77 +18 +18 1003.0 969.7
З 1 10 км нет нижн обл +16.0 +13.0 82 +17 +17 1003.0 969.6
З 2 10 км нет нижн обл +15.0 +12.0 82 +15 +15 1004.0 970.5
З 4 10 км нет нижн обл +15.0 +10.0 72 +14 +14 1004.0 970.4
З 3 10 км нет нижн обл +16.0 +9.0 63 +16 +16 1004.0 970.5
З 3 10 км нет нижн обл +16.0 +9.0 63 +16 +16 1004.0 970.5
З 2 10 км нет нижн обл +14.0 +12.0 88 +13 +13 1004.0 970.3
СЗ 1 10 км нет нижн обл +14.0 +10.0 77 +14 +14 1004.0 970.3
ЮВ 1 10 км нет нижн обл +14.0 +10.0 77 +14 +14 1004.0 970.3
З 2 10 км нет нижн обл +13.0 +11.0 88 +12 +12 1004.0 970.2
штиль 0 10 км нет нижн обл +11.0 +10.0 94 +10 +10 1001.0 967.1
штиль 0 10 км нет нижн обл +15.0 +11.0 77 +15 +15 1003.0 969.5
штиль 0 10 км нет нижн обл +16.0 +11.0 72 +16 +16 1003.0 969.6
штиль 0 10 км нет нижн обл +18.0 +10.0 59 +18 +18 1003.0 969.8
штиль 0 10 км нет нижн обл +19.0 +11.0 60 +20 +20 1003.0 969.9
В 2 10 км нет нижн обл +19.0 +11.0 60 +20 +20 1003.0 969.9
В 4 10 км нет нижн обл +20.0 +12.0 60 +22 +22 комфорт 1003.0 970.0
штиль 0 10 км 5/5 1260 м +16.0 +11.0 72 +16 +16 1003.0 969.6
Местоположение метеостанции Красноярск аэропорт (Красноярский край, Россия): широта 56.17 долгота 92.49 высота над уровнем моря 287 м.
В архиве по умолчанию представлена погода в Красноярск аэропорту за последнюю неделю. Архивные данные за месяц целиком и за предыдущие месяцы, начиная с января 2011 года, Вы можете получить, выбрав интересующий диапазон дат из раскрывающегося списка и нажав кнопку "Найти!".
*Определитесь, кто Вы:
Внимание! Время в таблицах - всемирное. Для получения местного времени необходимо прибавить поправку, которая равна 7 ч.
Смотрите также архив погоды в соседних городах и на ближайших метеорологических станциях:
Партнеры нашего сайта:      
Пояснения к столбцам:
  • Ветер - указаны скорость ветра в м/с - средняя за 10 мин, порывы в срок и между сроками (в фигурных скобках) и направление, откуда дует ветер: С - северный,
  • СВ - северо-восточный, В - восточный, ЮВ - юго-восточный, Ю - южный, ЮЗ - юго-западный, З - западный, СЗ - северо-западный.
  • Видимость - горизонтальная дальность видимости в метрах или километрах. При видимости от 1 до 10 км при отсутствии осадков обычно наблюдается дымка, при ухудшении видимости до 1 км и менее - туман. В сухую погоду видимость может ухудшаться дымом, пылью или мглою.
  • Явления - указаны атмосферные явления, наблюдавшиеся в срок или в последний час перед сроком; фигурными скобками обозначены явления, наблюдавшиеся между сроками (за 1-3 часа до срока); квадратными скобками обозначены град или гололедные отложения с указанием их диаметра в мм.
  • Облачность - указаны через наклонную черту общая и нижняя облачность в баллах и высота нижней границы облаков в метрах; квадратными скобками обозначены формы облаков: Ci - перистые, Cs - перисто-слоистые, Cc - перисто-кучевые, Ac - высококучевые, As - высокослоистые, Sc - слоисто-кучевые, Ns - слоисто-дождевые, Cu - кучевые, Cb - кучево-дождевые. Подробнее классификацию облаков см. в Атласе облаков (PDF).
  • T - Температура воздуха - температура, измеренная на высоте 2 м над землей.
  • Td - Температура точки росы - температура, при понижении до которой содержащийся в воздухе водяной пар достигнет насыщения.
  • f - Относительная влажность воздуха - влажноcть воздуха, измеренная на высоте 2 м над землей.
  • Te - Эффективная температура - температура, которую ощущает одетый по сезону человек в тени. Характеристика душности погоды. При расчете учитывается влияние влажности воздуха и скорости ветра на теплоощущения человека.
  • Tes - Эффективная температура на солнце - температура, которую ощущает человек, с поправкой на солнечный нагрев. Характеристика знойности погоды. Зависит от высоты солнца над горизонтом, облачности и скорости ветра. Ночью, в пасмурную погоду, а также при ветре 12 м/с и более поправка равна нулю.
  • P - Атмосферное давление - приведенное к уровню моря атмосферное давление.
  • Po - Атмосферное давление - измеренное на уровне метеостанции атмосферное давление.
  • Tmin - Минимальная температура - минимум температуры воздуха на высоте 2 м над землей.
  • Tmax - Максимальная температура - максимум температуры воздуха на высоте 2 м над землей.
  • R - Количество осадков - Количество выпавших осадков за период времени, мм. При наведении курсора мыши на число - период времени, за который выпало указанное количество осадков.
  • R24 - Количество осадков - Количество выпавших осадков за 24 часа, мм.
  • S - Снежный покров - Высота снежного покрова, см. При наведении курсора мыши на число - состояние снежного покрова и степень покрытия местности в баллах.